Weather History for Geneva, Switzerland

Change the Weather History Date:

Thursday, April 11, 2013

  Actual Average Record
Temperature  
Mean Temperature 54 °F -  
Max Temperature 61 °F 59 °F 73 °F (2011)
Min Temperature 48 °F 41 °F 30 °F (2004)
Degree Days  
Heating Degree Days 10    
Growing Degree Days 4 (Base 50)    
Moisture  
Dew Point 49 °F    
Average Humidity 83    
Maximum Humidity 100    
Minimum Humidity 56    
Precipitation  
Precipitation 0.08 in 0.09 in - ()
Sea Level Pressure  
Sea Level Pressure 29.78 in    
Wind  
Wind Speed 7 mph ()    
Max Wind Speed 22 mph    
Max Gust Speed 33 mph    
Visibility 6.2 miles    
Events Rain , Thunderstorm    
Averages and records for this station are not official NWS values.
T = Trace of Precipitation, MM = Missing Value Source: Averaged Metar Reports

Daily Weather History Graph

Daily Weather History Graph

Search for Another Location

Airport:

Trip Planner

Search our weather history database for the weather conditions in past years. The results will help you decide how hot, cold, wet, or windy it might be!

Date:

Astronomy

Apr. 11, 2013 Rise Set
Actual Time 6:56 AM CEST 8:17 PM CEST
Civil Twilight 6:25 AM CEST 8:48 PM CEST
Nautical Twilight 5:47 AM CEST 9:26 PM CEST
Astronomical Twilight 5:07 AM CEST 10:06 PM CEST
Moon 7:14 AM CEST (4/11) 9:42 PM CEST (4/11)
Length of Visible Light 14h 23m
Length of Day
13h 21m
New Moon, 1% of the Moon is Illuminated
Apr 11
New Moon
Apr 18
First Quarter
Apr 25
Full
May 2
Last Quarter
May 10
New

Hourly Weather History & Observations

Time (CEST) Temp. Dew Point Humidity Pressure Visibility Wind Dir Wind Speed Gust Speed Precip Events Conditions
12:00 AM 52 °F 42 °F 61% 29.91 in - SSW 11.5 mph - -  
12:20 AM 51.8 °F 44.6 °F 76% 29.89 in 6.2 mi SSW 9.2 mph - N/A Rain Light Rain
12:50 AM 51.8 °F 44.6 °F 76% 29.92 in 6.2 mi SSW 10.4 mph - N/A Rain Light Rain
1:00 AM 51 °F 44 °F 70% 29.91 in - SSW 10.4 mph - -  
1:20 AM 50.0 °F 46.4 °F 87% 29.89 in 6.2 mi SW 8.1 mph - N/A Rain Light Rain
1:50 AM 50.0 °F 46.4 °F 87% 29.89 in 6.2 mi West 9.2 mph - N/A Rain Light Rain
2:00 AM 50 °F 46 °F 79% 29.90 in 7 mi West 11.5 mph - - Rain Light Rain
2:20 AM 50.0 °F 46.4 °F 87% 29.89 in 5.0 mi West 10.4 mph - N/A Rain Rain
2:50 AM 48.2 °F 46.4 °F 93% 29.86 in 6.2 mi West 8.1 mph - N/A Rain Light Rain
3:00 AM 49 °F 46 °F 85% 29.89 in - West 6.9 mph - -  
3:50 AM 48.2 °F 46.4 °F 93% 29.86 in 6.2 mi West 8.1 mph - N/A Rain Light Rain
4:00 AM 49 °F 46 °F 84% 29.89 in - West 6.9 mph - -  
4:20 AM 50.0 °F 46.4 °F 87% 29.86 in 6.2 mi WSW 8.1 mph - N/A Rain Light Rain
4:50 AM 48.2 °F 46.4 °F 93% 29.86 in 5.6 mi WSW 4.6 mph - N/A Rain Light Rain
5:20 AM 48.2 °F 48.2 °F 100% 29.86 in 5.6 mi WSW 4.6 mph - N/A Rain Light Rain
5:50 AM 50.0 °F 46.4 °F 87% 29.86 in 6.2 mi WSW 5.8 mph - N/A   Mostly Cloudy
6:00 AM 50 °F 46 °F 81% 29.87 in - WSW 6.9 mph - -  
6:20 AM 50.0 °F 46.4 °F 87% 29.86 in 6.2 mi WSW 6.9 mph - N/A Rain Light Rain
6:50 AM 50.0 °F 46.4 °F 87% 29.83 in 6.2 mi West 9.2 mph - N/A Rain Light Rain
7:00 AM 49 °F 46 °F 87% 29.86 in - West 8.1 mph - -  
7:20 AM 50.0 °F 46.4 °F 87% 29.83 in 6.2 mi West 8.1 mph - N/A Rain Light Rain
7:50 AM 50.0 °F 46.4 °F 87% 29.83 in 6.2 mi WSW 9.2 mph - N/A Rain Light Rain
8:00 AM 50 °F 46 °F 81% 29.86 in 7 mi West 9.2 mph - - Rain Light Rain
8:20 AM 50.0 °F 46.4 °F 87% 29.83 in 6.2 mi WSW 8.1 mph - N/A Rain Light Rain
8:50 AM 50.0 °F 48.2 °F 94% 29.86 in 6.2 mi WSW 9.2 mph - N/A Rain Light Rain
9:00 AM 50 °F 47 °F 85% 29.86 in - WSW 9.2 mph - -  
9:20 AM 50.0 °F 48.2 °F 94% 29.86 in 5.6 mi WSW 8.1 mph - N/A Rain Light Rain
9:50 AM 50.0 °F 48.2 °F 94% 29.86 in 6.2 mi WSW 6.9 mph - N/A Rain Light Rain
10:00 AM 51 °F 48 °F 86% 29.86 in - WSW 6.9 mph - -  
10:20 AM 51.8 °F 50.0 °F 94% 29.86 in 6.2 mi WSW 4.6 mph - N/A Rain Light Rain
10:50 AM 51.8 °F 50.0 °F 94% 29.83 in 6.2 mi Variable 1.2 mph - N/A   Mostly Cloudy
11:20 AM 53.6 °F 50.0 °F 88% 29.83 in 6.2 mi Variable 1.2 mph - N/A   Mostly Cloudy
11:50 AM 55.4 °F 50.0 °F 82% 29.83 in 6.2 mi SW 5.8 mph - N/A   Mostly Cloudy
12:00 PM 55 °F 48 °F 71% 29.82 in - WSW 4.6 mph - -  
12:20 PM 55.4 °F 50.0 °F 82% 29.83 in 6.2 mi WSW 4.6 mph - N/A Rain Light Rain
12:50 PM 55.4 °F 50.0 °F 82% 29.80 in 6.2 mi WSW 4.6 mph - N/A   Overcast
1:00 PM 55 °F 50 °F 78% 29.81 in - WNW 3.5 mph - -  
1:20 PM 57.2 °F 51.8 °F 82% 29.80 in 6.2 mi Variable 3.5 mph - N/A   Overcast
1:50 PM 57.2 °F 50.0 °F 77% 29.77 in 6.2 mi West 3.5 mph - N/A   Overcast
2:00 PM 57 °F 49 °F 68% 29.77 in 22 mi West 3.5 mph - -   Partly Cloudy
2:20 PM 59.0 °F 50.0 °F 72% 29.77 in 6.2 mi Variable 2.3 mph - N/A Rain Light Rain
2:50 PM 59.0 °F 51.8 °F 77% 29.74 in 6.2 mi Variable 2.3 mph - N/A   Overcast
3:00 PM 59 °F 50 °F 64% 29.72 in - ENE 2.3 mph - -  
3:20 PM 60.8 °F 50.0 °F 68% 29.71 in 6.2 mi Variable 1.2 mph - N/A   Mostly Cloudy
3:50 PM 60.8 °F 51.8 °F 72% 29.68 in 6.2 mi Variable 2.3 mph - N/A   Overcast
4:00 PM 61 °F 49 °F 56% 29.68 in - WSW 3.5 mph - -  
4:20 PM 60.8 °F 51.8 °F 72% 29.68 in 6.2 mi Variable 2.3 mph - N/A Rain Light Rain
4:50 PM 55.4 °F 51.8 °F 88% 29.68 in 6.2 mi East 5.8 mph - N/A   Overcast
5:20 PM 55.4 °F 50.0 °F 82% 29.68 in 6.2 mi ENE 6.9 mph - N/A   Overcast
5:50 PM 55.4 °F 51.8 °F 88% 29.65 in 6.2 mi North 4.6 mph - N/A   Mostly Cloudy
6:00 PM 56 °F 51 °F 77% 29.65 in - North 4.6 mph - -  
6:20 PM 55.4 °F 51.8 °F 88% 29.65 in 6.2 mi Variable 3.5 mph - N/A   Overcast
6:50 PM 55.4 °F 51.8 °F 88% 29.65 in 6.2 mi Calm Calm - N/A Rain Light Rain
7:00 PM 55 °F 51 °F 80% 29.64 in - NNW 2.3 mph - -  
7:20 PM 55.4 °F 51.8 °F 88% 29.62 in 6.2 mi Variable 1.2 mph - N/A   Overcast
7:50 PM 51.8 °F 50.0 °F 94% 29.62 in 6.2 mi Variable 1.2 mph - N/A   Overcast
8:00 PM 53 °F 49 °F 83% 29.63 in 16 mi ESE 3.5 mph - - Rain Light Rain
8:20 PM 51.8 °F 50.0 °F 94% 29.62 in 6.2 mi ESE 4.6 mph - N/A   Overcast
8:50 PM 51.8 °F 50.0 °F 94% 29.62 in 6.2 mi Variable 3.5 mph - N/A Rain Light Rain
9:00 PM 53 °F 49 °F 82% 29.64 in - North 2.3 mph - -  
9:20 PM 55.4 °F 51.8 °F 88% 29.62 in 6.2 mi WSW 5.8 mph - N/A Rain Light Rain
9:50 PM 57.2 °F 51.8 °F 82% 29.62 in 6.2 mi SW 8.1 mph - N/A Rain Light Rain
10:00 PM 57 °F 50 °F 71% 29.62 in - SW 9.2 mph - -  
10:20 PM 55.4 °F 50.0 °F 82% 29.68 in 1.8 mi WNW 21.9 mph 33.4 mph N/A Rain , Thunderstorm Heavy Thunderstorms and Rain
10:50 PM 51.8 °F 48.2 °F 88% 29.68 in 3.7 mi SW 9.2 mph - N/A Rain , Thunderstorm Thunderstorms and Rain
11:20 PM 51.8 °F 48.2 °F 88% 29.71 in 5.0 mi SW 12.7 mph - N/A Rain , Thunderstorm Light Thunderstorms and Rain
11:50 PM 50.0 °F 48.2 °F 94% 29.71 in 3.7 mi SSW 10.4 mph - N/A Rain Rain Showers